Погода Марково

Погода Марково : погода сейчас, прогноз погоды и архив. Всё, что Вы хотите узнать о погоде Марково!

Хотите узнать прогноз погоды Марково? Тогда Вам сюда: Погода Марково

Поиск расширенной информации на нашем сайте:

Другие новости

Новости СМИ2

Главная страница сайта

Новости сайта

02.10.2013

Напоминаем, что на нашем новом сайте вы можете получить высокодетализированные прогнозы погоды по пунктам России, СНГ и мира (включающие важные для авиации метеовеличины, такие как направление и скорость ветра, видимость, явления погоды, количество и форма облачности, нижняя и верхняя граница облачности), а также ознакомиться с разнообразными материалами по авиационной метеорологии и подборкой полезных ссылок на эту тему.

Сайт Метеоцентр.Азия посвящён разработке технологий оптимизации авиаметеорологического обслуживания, включая проектирование и перспективное создание нескольких автоматизированных авиаметеорологических систем:
- система выпуска высокодетальных прогностических карт явлений погоды для нижнего воздушного пространства по России и ближнему зарубежью;
- система верификации прогнозов TAF (выпускаемых синоптиками официальных АМСГ РФ и ближнего зарубежья) и AUTOTAF (выпускаемых сайтом Метеоцентр.Азия) - выявление ошибок, онлайн-сопоставление с фактической погодой METAR, автоматическое внесение коррективов в прогнозы при резком отклонении фактической погоды от прогноза, подсчёт оправдываемости прогнозов по элементам и в целом;
- система обработки, анализа и отображения авиаметеорологической информации для применения провайдерами метеорологической информации.


Погода Марково - сегодня

Время (UTC), дата Ветер
(°,м/с) 
Видим.   Явления Облачность Т
(°С)
Тd
(°С)
f(%) Тe
(°С)
Pmin
(гПа)
dP
(гПа)
Po
(мм)
O2
(г/м3)
Тmin Tmax R s Состояние
почвы
06 25.05.17 360 (С) 2{06}  20000 м  {ливн. осадки}  10/4 1000 м средняя, верхняя 
[Sc diur, vesp|Ac As|Cs]
+3.8 -1.5 68 +3  1005.3  -0.7  752  299    +4.6  0.0     
09 25.05.17 040 (СВ) 2{05}  20000 м    9/5 1000 м средняя, верхняя 
[Sc diur, vesp|Ac trans|Ci fib]
+2.4 -2.2 72 +2  1005.6  0.3  752  301           
12 25.05.17 020 (С) 2{05}  20000 м    10/6 1000 м средняя, верхняя 
[Sc|Ac trans|Cs]
+0.4 -1.6 86 1005.6  -0.1  752  303           
15 25.05.17 030 (СВ) 2{05}  2000 м  снег{ливн. осадки}  10/8 1000 м средняя 
[Sc|As op]
-0.5 -1.1 96 -1  1005.4  -0.2  752  304           
18 25.05.17 010 (С) 2{05}  4000 м  слаб. снег{ливн. осадки}  10/3 1000 м средняя 
[Sc|As op]
-0.7 -1.4 95 -2  1005.4  752  304  -1    12  равномерный
сухой снег
100% 
21 25.05.17 360 (С) 2{05}  4000 м  слаб. снег  10/5 1000 м средняя 
[Sc|As op]
+0.3 -0.8 92 1005.6  0.2  752  303           
00 26.05.17 360 (С) 2{04}  20000 м  в посл. час ливневой снег  9/9 600 м кучево-дожд., средняя 
[Cb cap|Ac trans]
+1.8 +0.5 91 +1  1005.7  0.1  752  301           
03 26.05.17 320 (СЗ) 1{03}  10 км  слаб. ливневой дождь со снегом  10/10 600 м кучево-дожд. 
[Cb cap]
+3.2 +0.3 81 +4  1005.6  752  299           
06 26.05.17 350 (С) 2{03}  20000 м  {ливн. осадки}  10/10 600 м кучево-дожд. 
[Cb cap]
+2.7 +0.3 84 +2  1005.5  -0.1  752  300    +3.4  0.7     
09 26.05.17 010 (С) 2{04}  20000 м    10/10 1000 м 
[Sc]
+2.1 +0.8 91 +1  1005.3  -0.2  752  300           
12 26.05.17 030 (СВ) 2{05}  10 км  слаб. ливневой дождь  10/8 600 м кучево-дожд., средняя 
[Cb cap|Ac und]
+1.2 +0.4 94 +1  1005.4  752  302           
15 26.05.17 040 (СВ) 2{05}  20000 м  в посл. час ливневой дождь  10/8 600 м кучево-дожд., средняя 
[Cb cap|Ac und]
+0.4 -0.2 96 1004.6  -0.8  751  302           
18 26.05.17 080 (В) 1{05}  4000 м  дождь{ливн. осадки}  10/3 300 м средняя 
[Frnb|As op]
+1.4 +0.9 96 +2  1004.2  -0.4  751  301  +0.4    мокрый или
старый снег
50-90% 
21 26.05.17 110 (В) 2{04}  1000 м  сильн. дождь  10/8 300 м средняя 
[Frnb|As op]
+2 +1.2 94 +1  1003.4  -0.7  750  300           
03 27.05.17 220 (ЮЗ) 1{05}  4000 м  дождь  10/8 300 м средняя 
[Frnb|As op]
+3.9 +2.4 90 +5  1002.7  -0.4  750  298           
09 27.05.17 020 (С) 2{04}  10 км  слаб. дождь  10/8 300 м средняя 
[Frnb|As op]
+2.3 +1.5 94 +2  1001.9  -0.3  749  299           
15 27.05.17 230 (ЮЗ) 1{03}  0500 м  слаб. дождь{туман}  10/8 300 м средняя 
[Frnb|As op]
+0.6 +0.3 98 +1  1002.1  0.3  749  301           
18 27.05.17 тихо () {02}  4000 м  дождь{туман}  10/6 300 м средняя 
[Frnb|As op]
+1.4 +1.1 98 +1  1002.7  0.6  750  300  +0.6    мокрый или
старый снег
10-40% 
21 27.05.17 010 (С) 1{02}  4000 м  слаб. дождь  10/5 300 м средняя 
[Frnb|As op]
+3.6 +3.1 97 +4  1003.5  0.9  750  298           
03 28.05.17 050 (СВ) 3{05}  4000 м  слаб. дождь  10/8 300 м средняя 
[Frnb|As op]
+4.8 +3.8 93 +4  1004.7  0.6  751  297           
09 28.05.17 030 (СВ) 3{07}  20000 м  {дождь}  10/8 1000 м средняя 
[Sc|Ac und]
+4.2 +1.4 82 +3  1006.3  1.1  753  298           
15 28.05.17 010 (С) 2{04}  20000 м    10/5 1000 м средняя 
[Sc|Ac und]
+0.9 +0.4 96 1008.6  0.7  754  303           
18 28.05.17 010 (С) 2{05}  20000 м    10/6 1000 м средняя 
[Sc|Ac und]
+1.3 +0.5 94 +1  1009.5  0.9  755  303  +0.8    0.0  мокрый или
старый снег
10-40% 
21 28.05.17 010 (С) 2{05}  20000 м  {дождь}  10/3 300 м средняя 
[St|Ac As]
+2.8 +1.2 89 +2  1010.6  1.2  756  301           
03 29.05.17 360 (С) 4{07}  20000 м    10/5 1000 м средняя, верхняя 
[Sc|Ac trans|Ci fib]
+6.2 +1.4 71 +5  1011.1  0.1  756  298           
Время (UTC), дата Ветер
(°,м/с) 
Видим.   Явления Облачность Т
(°С)
Тd
(°С)
f(%) Тe
(°С)
Pmin
(гПа)
dP
(гПа)
Po
(мм)
O2
(г/м3)
Тmin Tmax R s Состояние
почвы

Для получения пояснительной информации подведите курсор к названию столбца.

ПОГОДА Марково - архив

Всё, что Вы хотите узнать о погоде Марково - удобно и подробно!

Выберите нужную дату (начиная с 1 января 2015* года) и нажмите кнопку "Найти".
Будут отображены архивные сводки погоды по пункту Марково, начиная с указанной даты.


Отображать данные в формате CSV (для использования в таблицах Excel)


Внимание! Наш архив погоды предназначен исключительно для личного некоммерческого использования в познавательных целях. Если Вам необходимы официальные справки о состоянии погоды (для производственных, юридических, коммерческих и т.п. целей), обращайтесь в органы Росгидромета.

*Примечание: данная дата относится к архиву по метеостанциям СССР (Россия, СНГ, Балтия).
Архив по метеостанциям Зарубежной Европы и Азии (кроме Китая) хранится 10 дней, по другим регионам земного шара (Китай, Африка, Америка, Австралия, Океания) - 1 день.

Марково - район местоположения метеостанции


Название, широта, долгота, высота метеостанции:
Марково 64.7°ш. 170.4°д. 26 м над ур. моря [Российская Федерация]

Дополнительная информация

В oтличие oт бoльшинства пoгoдных сайтoв мы публикуем пoдрoбную метеoинфoрмацию в детальнoм прoфессиoнальнoм фoрмате.

Характеристики температуры и влажнoсти вoздуха измеряются на высoте 2 м в тени вдали oт зданий и деревьев.
Скoрoсть ветра измеряется на высoте 10 м (на урoвне рoста челoвека скoрoсть ветра ниже в 1.5-2 раза). Если метеoстанция нахoдится в гoрoде или в лесу, тo скoрoсть ветра занижена на 2-4 м/с пo сравнению с oткрытым местoм. Скoрoсть ветра над акватoриями крупных рек и oзёр, а также на вершинах хoлмoв на 2-5 м/с выше, чем в oбычных услoвиях.
Атмoсфернoе давление в разных тoчках местнoсти мoжет значительнo oтличаться oт давления на метеoстанции, в зависимoсти oт услoвий рельефа (при пoдъёме на 10 м давление пoнижается примернo на 1 мм рт.ст.).